TimeCST,TemperatureF,Dew PointF,Humidity,Sea Level PressureIn,VisibilityMPH,Wind Direction,Wind SpeedMPH,Gust SpeedMPH,PrecipitationIn,Events,Conditions,WindDirDegrees,DateUTC
12:52 AM,21.9,12.0,66,30.06,-9999.0,WNW,13.8,20.7,N/A,,Unknown,300,2012-12-10 06:52:00
1:52 AM,21.0,10.9,65,30.05,-9999.0,NW,11.5,21.9,N/A,,Unknown,320,2012-12-10 07:52:00
2:52 AM,19.9,10.9,68,30.06,-9999.0,NW,10.4,-,N/A,,Unknown,310,2012-12-10 08:52:00
3:52 AM,19.9,10.0,65,30.06,-9999.0,NW,12.7,18.4,N/A,,Unknown,310,2012-12-10 09:52:00
4:52 AM,19.9,10.0,65,30.07,-9999.0,NW,12.7,21.9,N/A,,Unknown,310,2012-12-10 10:52:00
5:52 AM,19.9,10.0,65,30.08,-9999.0,NW,9.2,19.6,N/A,,Unknown,310,2012-12-10 11:52:00
6:52 AM,19.9,10.0,65,30.10,-9999.0,WNW,11.5,19.6,N/A,,Unknown,300,2012-12-10 12:52:00
7:52 AM,19.9,10.0,65,30.12,-9999.0,NW,9.2,-,N/A,,Unknown,310,2012-12-10 13:52:00
8:52 AM,21.0,10.9,65,30.13,-9999.0,NW,11.5,18.4,N/A,,Unknown,310,2012-12-10 14:52:00
9:52 AM,21.9,10.9,63,30.12,-9999.0,NW,8.1,-,N/A,,Unknown,310,2012-12-10 15:52:00
10:52 AM,23.0,10.9,60,30.13,-9999.0,WNW,8.1,-,N/A,,Unknown,300,2012-12-10 16:52:00
11:52 AM,24.1,12.9,62,30.11,-9999.0,NW,8.1,-,N/A,,Unknown,310,2012-12-10 17:52:00
12:52 PM,26.1,14.0,60,30.09,-9999.0,West,6.9,-,N/A,,Unknown,270,2012-12-10 18:52:00
1:52 PM,28.9,15.1,56,30.06,-9999.0,West,8.1,-,N/A,,Unknown,280,2012-12-10 19:52:00
2:52 PM,30.0,15.1,54,30.06,-9999.0,West,8.1,-,N/A,,Unknown,270,2012-12-10 20:52:00
3:52 PM,30.0,14.0,51,30.06,-9999.0,Variable,6.9,-,N/A,,Unknown,0,2012-12-10 21:52:00
4:52 PM,28.0,14.0,56,30.08,-9999.0,WSW,3.5,-,N/A,,Unknown,240,2012-12-10 22:52:00
5:52 PM,25.0,14.0,63,30.08,-9999.0,Calm,Calm,-,N/A,,Unknown,0,2012-12-10 23:52:00
6:52 PM,21.0,14.0,74,30.08,-9999.0,Calm,Calm,-,N/A,,Unknown,0,2012-12-11 00:52:00
7:52 PM,18.0,12.9,81,30.09,-9999.0,Calm,Calm,-,N/A,,Unknown,0,2012-12-11 01:52:00
8:52 PM,18.0,12.9,81,30.10,-9999.0,Calm,Calm,-,N/A,,Unknown,0,2012-12-11 02:52:00
9:52 PM,17.1,10.9,77,30.10,-9999.0,Calm,Calm,-,N/A,,Unknown,0,2012-12-11 03:52:00
10:52 PM,15.1,10.0,80,30.10,-9999.0,Calm,Calm,-,N/A,,Unknown,0,2012-12-11 04:52:00
11:52 PM,16.0,10.9,81,30.10,-9999.0,Calm,Calm,-,N/A,,Unknown,0,2012-12-11 05:52:00